Data No, UTC Date,UTC Time,Latitude,Longitude,Course(deg),Temp(degC),Sal(psu)
583,2018/8/25,9:42,42-36.88N,141-36.95E,218,20.607,30.5226
584,2018/8/25,9:43,42-36.66N,141-36.83E,193,20.599,30.3075
585,2018/8/25,9:44,42-36.43N,141-36.79E,184,20.691,30.1078
586,2018/8/25,9:45,42-36.19N,141-36.76E,184,20.603,30.1664
587,2018/8/25,9:46,42-35.95N,141-36.75E,181,20.583,30.4005
588,2018/8/25,9:47,42-35.70N,141-36.74E,181,20.568,30.5524
589,2018/8/25,9:48,42-35.45N,141-36.73E,182,20.578,30.7004
590,2018/8/25,9:49,42-35.20N,141-36.72E,182,20.589,30.9571
591,2018/8/25,9:50,42-34.96N,141-36.70E,182,20.585,31.3464
592,2018/8/25,9:51,42-34.71N,141-36.68E,182,20.607,31.7072
593,2018/8/25,9:52,42-34.46N,141-36.66E,184,20.573,31.9691
594,2018/8/25,9:53,42-34.21N,141-36.65E,182,20.569,32.1866
595,2018/8/25,9:54,42-33.97N,141-36.63E,183,20.504,32.3398
596,2018/8/25,9:55,42-33.73N,141-36.61E,183,20.442,32.491
597,2018/8/25,9:56,42-33.48N,141-36.60E,182,20.408,32.5704
598,2018/8/25,9:57,42-33.24N,141-36.58E,182,20.377,32.6618
599,2018/8/25,9:58,42-32.99N,141-36.57E,181,20.325,32.6967
600,2018/8/25,9:59,42-32.75N,141-36.55E,182,20.323,32.7452
601,2018/8/25,10:00,42-32.51N,141-36.54E,183,20.311,32.7759
602,2018/8/25,10:01,42-32.27N,141-36.52E,182,20.294,32.8047
603,2018/8/25,10:02,42-32.04N,141-36.50E,183,20.264,32.8351
604,2018/8/25,10:03,42-31.81N,141-36.49E,181,20.275,32.8696
605,2018/8/25,10:04,42-31.58N,141-36.47E,184,20.246,32.9018
606,2018/8/25,10:05,42-31.36N,141-36.46E,181,20.247,32.9165
607,2018/8/25,10:06,42-31.13N,141-36.45E,181,20.229,32.9383
608,2018/8/25,10:07,42-30.91N,141-36.44E,181,20.241,32.9552
609,2018/8/25,10:08,42-30.67N,141-36.43E,182,20.222,32.9685
610,2018/8/25,10:09,42-30.44N,141-36.41E,182,20.199,32.9787
611,2018/8/25,10:10,42-30.20N,141-36.39E,183,20.204,32.9929
612,2018/8/25,10:11,42-29.97N,141-36.38E,182,20.208,32.9996
613,2018/8/25,10:12,42-29.72N,141-36.37E,182,20.245,33.0076
614,2018/8/25,10:13,42-29.48N,141-36.35E,183,20.22,33.0089
615,2018/8/25,10:14,42-29.25N,141-36.33E,184,20.202,33.0162
616,2018/8/25,10:15,42-29.03N,141-36.32E,181,20.186,33.0175
617,2018/8/25,10:16,42-28.79N,141-36.31E,183,20.194,33.0249
618,2018/8/25,10:17,42-28.56N,141-36.29E,184,20.153,33.0359
619,2018/8/25,10:18,42-28.32N,141-36.27E,184,20.13,33.0472
620,2018/8/25,10:19,42-28.09N,141-36.25E,183,20.115,33.0569
621,2018/8/25,10:20,42-27.86N,141-36.23E,183,20.113,33.0721
622,2018/8/25,10:21,42-27.63N,141-36.21E,185,20.079,33.0852
623,2018/8/25,10:22,42-27.41N,141-36.18E,185,20.046,33.0959
624,2018/8/25,10:23,42-27.18N,141-36.16E,181,20.075,33.1087
625,2018/8/25,10:24,42-26.95N,141-36.15E,183,20.016,33.1208
626,2018/8/25,10:25,42-26.72N,141-36.13E,184,20.024,33.1411
627,2018/8/25,10:26,42-26.48N,141-36.10E,183,19.986,33.1551
628,2018/8/25,10:27,42-26.25N,141-36.08E,183,19.989,33.1765
629,2018/8/25,10:28,42-26.02N,141-36.06E,182,19.974,33.1955
630,2018/8/25,10:29,42-25.79N,141-36.04E,183,19.976,33.212
631,2018/8/25,10:30,42-25.54N,141-36.03E,182,19.974,33.2334
632,2018/8/25,10:31,42-25.30N,141-36.01E,183,20.012,33.249
633,2018/8/25,10:32,42-25.06N,141-35.99E,185,20.013,33.262
634,2018/8/25,10:33,42-24.83N,141-35.96E,182,20.015,33.2518
635,2018/8/25,10:34,42-24.59N,141-35.95E,183,20.025,33.241
636,2018/8/25,10:35,42-24.35N,141-35.93E,182,20.031,33.2252
637,2018/8/25,10:36,42-24.11N,141-35.92E,182,20.076,33.2146
638,2018/8/25,10:37,42-23.87N,141-35.90E,183,20.031,33.2139
639,2018/8/25,10:38,42-23.64N,141-35.88E,181,20.012,33.2218
640,2018/8/25,10:39,42-23.40N,141-35.87E,182,20.005,33.233
641,2018/8/25,10:40,42-23.16N,141-35.85E,183,19.954,33.244
642,2018/8/25,10:41,42-22.92N,141-35.83E,182,19.923,33.2589
643,2018/8/25,10:42,42-22.68N,141-35.82E,182,19.899,33.2748
644,2018/8/25,10:43,42-22.44N,141-35.81E,182,19.907,33.2969
645,2018/8/25,10:44,42-22.20N,141-35.79E,182,19.92,33.3167
646,2018/8/25,10:45,42-21.95N,141-35.78E,182,19.922,33.3445
647,2018/8/25,10:46,42-21.70N,141-35.77E,181,19.939,33.3614
648,2018/8/25,10:47,42-21.46N,141-35.75E,181,19.956,33.4006
649,2018/8/25,10:48,42-21.21N,141-35.74E,182,20.033,33.433
650,2018/8/25,10:49,42-20.96N,141-35.73E,182,20.048,33.4776
651,2018/8/25,10:50,42-20.71N,141-35.72E,181,20.072,33.4968
652,2018/8/25,10:51,42-20.46N,141-35.71E,181,20.073,33.51
653,2018/8/25,10:52,42-20.21N,141-35.70E,182,20.086,33.5155
654,2018/8/25,10:53,42-19.96N,141-35.69E,181,20.071,33.5187
655,2018/8/25,10:54,42-19.70N,141-35.68E,181,20.051,33.5212
656,2018/8/25,10:55,42-19.45N,141-35.67E,182,20.035,33.5235
657,2018/8/25,10:56,42-19.20N,141-35.66E,181,20.018,33.5322
658,2018/8/25,10:57,42-18.96N,141-35.65E,181,19.987,33.5435
659,2018/8/25,10:58,42-18.71N,141-35.64E,180,19.956,33.5498
660,2018/8/25,10:59,42-18.46N,141-35.64E,180,19.968,33.5591
661,2018/8/25,11:00,42-18.22N,141-35.65E,178,19.933,33.5689
662,2018/8/25,11:01,42-17.97N,141-35.65E,178,19.913,33.5791
663,2018/8/25,11:02,42-17.73N,141-35.66E,179,19.892,33.58
664,2018/8/25,11:03,42-17.49N,141-35.67E,177,19.902,33.5827
665,2018/8/25,11:04,42-17.25N,141-35.67E,178,19.898,33.5862
666,2018/8/25,11:05,42-17.01N,141-35.69E,176,19.878,33.581
667,2018/8/25,11:06,42-16.76N,141-35.71E,178,19.867,33.5815
668,2018/8/25,11:07,42-16.51N,141-35.71E,178,19.827,33.5837
669,2018/8/25,11:08,42-16.26N,141-35.73E,177,19.808,33.5938
670,2018/8/25,11:09,42-16.02N,141-35.73E,178,19.807,33.6036
671,2018/8/25,11:10,42-15.77N,141-35.74E,178,19.809,33.6067
672,2018/8/25,11:11,42-15.53N,141-35.75E,177,19.82,33.606
673,2018/8/25,11:12,42-15.29N,141-35.76E,177,19.848,33.5904
674,2018/8/25,11:13,42-15.04N,141-35.78E,177,19.866,33.5779
675,2018/8/25,11:14,42-14.79N,141-35.80E,177,19.905,33.5577
676,2018/8/25,11:15,42-14.54N,141-35.82E,177,19.899,33.5306
677,2018/8/25,11:16,42-14.28N,141-35.83E,177,19.871,33.5007
678,2018/8/25,11:17,42-14.03N,141-35.84E,177,19.843,33.4658
679,2018/8/25,11:18,42-13.80N,141-35.85E,178,19.814,33.4426
680,2018/8/25,11:19,42-13.56N,141-35.86E,177,19.796,33.4256
681,2018/8/25,11:20,42-13.32N,141-35.88E,177,19.738,33.4185
682,2018/8/25,11:21,42-13.07N,141-35.88E,179,19.721,33.4193
683,2018/8/25,11:22,42-12.83N,141-35.88E,180,19.708,33.4305
684,2018/8/25,11:23,42-12.58N,141-35.88E,180,19.752,33.4419
685,2018/8/25,11:24,42-12.34N,141-35.87E,181,19.796,33.4726
686,2018/8/25,11:25,42-12.09N,141-35.87E,179,19.851,33.4898
687,2018/8/25,11:26,42-11.84N,141-35.87E,180,19.864,33.508
688,2018/8/25,11:27,42-11.59N,141-35.87E,180,19.833,33.5144
689,2018/8/25,11:28,42-11.35N,141-35.87E,180,19.845,33.517
690,2018/8/25,11:29,42-11.10N,141-35.87E,181,19.778,33.5183
691,2018/8/25,11:30,42-10.85N,141-35.87E,180,19.769,33.5148
692,2018/8/25,11:31,42-10.61N,141-35.87E,179,19.733,33.5133
693,2018/8/25,11:32,42-10.36N,141-35.87E,179,19.766,33.518
694,2018/8/25,11:33,42-10.13N,141-35.87E,181,19.784,33.5298
695,2018/8/25,11:34,42-09.89N,141-35.86E,180,19.778,33.5393
696,2018/8/25,11:35,42-09.66N,141-35.86E,181,19.688,33.5451
697,2018/8/25,11:36,42-09.42N,141-35.86E,180,19.62,33.5598
698,2018/8/25,11:37,42-09.19N,141-35.84E,182,19.557,33.576
699,2018/8/25,11:38,42-08.95N,141-35.85E,180,19.448,33.5981
700,2018/8/25,11:39,42-08.72N,141-35.85E,179,19.425,33.6282
701,2018/8/25,11:40,42-08.48N,141-35.85E,181,19.412,33.656
702,2018/8/25,11:41,42-08.24N,141-35.85E,181,19.428,33.6642
703,2018/8/25,11:42,42-07.99N,141-35.85E,180,19.512,33.6815
704,2018/8/25,11:43,42-07.75N,141-35.84E,180,19.486,33.7252
705,2018/8/25,11:44,42-07.50N,141-35.85E,179,19.454,33.7387
706,2018/8/25,11:45,42-07.26N,141-35.84E,180,19.405,33.746
707,2018/8/25,11:46,42-06.97N,141-35.84E,181,19.394,33.7525
708,2018/8/25,11:47,42-06.72N,141-35.84E,179,19.38,33.7573
709,2018/8/25,11:48,42-06.46N,141-35.84E,179,19.305,33.7647
710,2018/8/25,11:49,42-06.25N,141-35.84E,180,19.259,33.7676
711,2018/8/25,11:50,42-06.00N,141-35.84E,180,19.253,33.7777
712,2018/8/25,11:51,42-05.74N,141-35.84E,180,19.292,33.7818
713,2018/8/25,11:52,42-05.48N,141-35.83E,180,19.291,33.7829
714,2018/8/25,11:53,42-05.23N,141-35.83E,180,19.254,33.7831
715,2018/8/25,11:54,42-04.98N,141-35.82E,181,19.23,33.7853
716,2018/8/25,11:55,42-04.72N,141-35.82E,180,19.213,33.7913
717,2018/8/25,11:56,42-04.47N,141-35.81E,182,19.263,33.7958
718,2018/8/25,11:57,42-04.21N,141-35.80E,180,19.309,33.8049
719,2018/8/25,11:58,42-03.94N,141-35.81E,179,19.332,33.8171
720,2018/8/25,11:59,42-03.69N,141-35.80E,182,19.328,33.8267
721,2018/8/25,12:00,42-03.44N,141-35.79E,181,19.308,33.8351
722,2018/8/25,12:01,42-03.16N,141-35.79E,180,19.228,33.8395
723,2018/8/25,12:02,42-02.95N,141-35.79E,180,19.202,33.8415
724,2018/8/25,12:03,42-02.70N,141-35.78E,180,19.221,33.846
725,2018/8/25,12:04,42-02.44N,141-35.78E,179,19.182,33.8496
726,2018/8/25,12:05,42-02.17N,141-35.77E,182,19.158,33.8489
727,2018/8/25,12:06,42-01.91N,141-35.76E,180,19.178,33.8524
728,2018/8/25,12:07,42-01.66N,141-35.76E,180,19.16,33.8547
729,2018/8/25,12:08,42-01.39N,141-35.75E,182,19.156,33.8596
730,2018/8/25,12:09,42-01.13N,141-35.74E,181,19.143,33.8643
731,2018/8/25,12:10,42-00.86N,141-35.73E,181,19.129,33.8773
732,2018/8/25,12:11,42-00.60N,141-35.72E,180,19.074,33.8852
733,2018/8/25,12:12,42-00.33N,141-35.71E,182,19.029,33.8936
734,2018/8/25,12:13,42-00.07N,141-35.70E,181,19.022,33.8997
735,2018/8/25,12:14,41-59.81N,141-35.69E,181,19.06,33.9086
736,2018/8/25,12:15,41-59.54N,141-35.68E,182,19.064,33.9153
737,2018/8/25,12:16,41-59.28N,141-35.67E,181,18.981,33.924
738,2018/8/25,12:17,41-59.01N,141-35.65E,182,18.932,33.934
739,2018/8/25,12:18,41-58.75N,141-35.64E,180,18.888,33.9402
740,2018/8/25,12:19,41-58.48N,141-35.63E,182,18.802,33.9488
741,2018/8/25,12:20,41-58.21N,141-35.61E,182,18.652,33.9579
742,2018/8/25,12:21,41-57.95N,141-35.60E,182,18.544,33.9708
743,2018/8/25,12:22,41-57.68N,141-35.58E,182,18.489,33.9739
744,2018/8/25,12:23,41-57.41N,141-35.57E,182,18.423,33.9798
745,2018/8/25,12:24,41-57.13N,141-35.55E,182,18.381,33.9898
746,2018/8/25,12:25,41-56.87N,141-35.54E,181,18.345,33.988
747,2018/8/25,12:26,41-56.59N,141-35.52E,182,18.274,33.9921
748,2018/8/25,12:27,41-56.33N,141-35.51E,182,18.239,33.987
749,2018/8/25,12:28,41-56.07N,141-35.49E,181,18.235,33.9857
750,2018/8/25,12:29,41-55.81N,141-35.48E,182,18.365,33.983
751,2018/8/25,12:30,41-55.54N,141-35.47E,181,18.345,33.9813
752,2018/8/25,12:31,41-55.27N,141-35.46E,182,18.371,33.975
753,2018/8/25,12:32,41-55.01N,141-35.45E,182,18.406,33.9719
754,2018/8/25,12:33,41-54.75N,141-35.43E,182,18.477,33.9683
755,2018/8/25,12:34,41-54.48N,141-35.42E,183,18.52,33.9537
756,2018/8/25,12:35,41-54.22N,141-35.40E,183,18.52,33.9394
757,2018/8/25,12:36,41-53.96N,141-35.39E,180,18.427,33.9307
758,2018/8/25,12:37,41-53.69N,141-35.38E,180,18.196,33.9286
759,2018/8/25,12:38,41-53.40N,141-35.38E,181,18.187,33.9393
760,2018/8/25,12:39,41-53.13N,141-35.37E,180,18.092,33.9645
761,2018/8/25,12:40,41-52.86N,141-35.37E,180,18.121,33.9694
762,2018/8/25,12:41,41-52.59N,141-35.38E,179,18.172,33.9739
763,2018/8/25,12:42,41-52.33N,141-35.39E,178,18.268,33.9716
764,2018/8/25,12:43,41-52.07N,141-35.39E,180,18.375,33.9633
765,2018/8/25,12:44,41-51.81N,141-35.40E,178,18.494,33.9548
766,2018/8/25,12:45,41-51.55N,141-35.42E,177,18.587,33.9358
767,2018/8/25,12:46,41-51.29N,141-35.44E,177,18.673,33.9141
768,2018/8/25,12:47,41-51.07N,141-35.45E,177,18.744,33.8833
769,2018/8/25,12:48,41-50.82N,141-35.46E,178,18.754,33.8534
770,2018/8/25,12:49,41-50.56N,141-35.48E,174,18.729,33.8326
771,2018/8/25,12:50,41-50.31N,141-35.52E,175,19.168,33.8205
772,2018/8/25,12:51,41-50.05N,141-35.54E,175,19.409,33.7978
773,2018/8/25,12:52,41-49.80N,141-35.57E,175,19.668,33.7417
774,2018/8/25,12:53,41-49.54N,141-35.60E,176,19.859,33.727
775,2018/8/25,12:54,41-49.29N,141-35.62E,175,19.89,33.7345
776,2018/8/25,12:55,41-49.03N,141-35.65E,175,19.847,33.754
777,2018/8/25,12:56,41-48.78N,141-35.66E,179,19.749,33.7704
778,2018/8/25,12:57,41-48.52N,141-35.66E,180,19.517,33.7934
779,2018/8/25,12:58,41-48.27N,141-35.68E,173,19.382,33.8275
780,2018/8/25,12:59,41-48.02N,141-35.72E,176,19.543,33.8622
781,2018/8/25,13:00,41-47.78N,141-35.73E,178,19.7,33.9323
782,2018/8/25,13:01,41-47.54N,141-35.74E,178,19.893,33.9703
783,2018/8/25,13:02,41-47.29N,141-35.75E,176,19.99,33.9935
784,2018/8/25,13:03,41-47.05N,141-35.77E,178,20.187,34.0029
785,2018/8/25,13:04,41-46.81N,141-35.77E,180,20.472,34.0106
786,2018/8/25,13:05,41-46.58N,141-35.77E,179,20.539,34.0118
787,2018/8/25,13:06,41-46.35N,141-35.77E,180,20.351,34.0109
788,2018/8/25,13:07,41-46.12N,141-35.77E,181,20.251,34.0113
789,2018/8/25,13:08,41-45.89N,141-35.76E,181,20.163,34.015
790,2018/8/25,13:09,41-45.65N,141-35.74E,182,19.984,34.0157
791,2018/8/25,13:10,41-45.41N,141-35.73E,182,20.001,34.0169
792,2018/8/25,13:11,41-45.17N,141-35.70E,186,19.699,34.0179
793,2018/8/25,13:12,41-44.93N,141-35.67E,186,19.551,34.0081
794,2018/8/25,13:13,41-44.68N,141-35.63E,186,19.469,34.0163
795,2018/8/25,13:14,41-44.44N,141-35.60E,185,19.397,34.0072
796,2018/8/25,13:15,41-44.20N,141-35.57E,185,19.393,34.0046
797,2018/8/25,13:16,41-43.95N,141-35.53E,186,19.324,34.0028
798,2018/8/25,13:17,41-43.72N,141-35.49E,186,19.213,33.9982
799,2018/8/25,13:18,41-43.47N,141-35.46E,186,19.16,33.9985
800,2018/8/25,13:19,41-43.23N,141-35.41E,189,19.297,34.0038
801,2018/8/25,13:20,41-43.00N,141-35.35E,191,19.683,34.0022
802,2018/8/25,13:21,41-42.77N,141-35.29E,189,20.007,34.0049
803,2018/8/25,13:22,41-42.53N,141-35.24E,188,20.058,33.9967
804,2018/8/25,13:23,41-42.29N,141-35.19E,188,20.115,33.9857
805,2018/8/25,13:24,41-42.05N,141-35.14E,189,20.107,33.9834
806,2018/8/25,13:25,41-41.81N,141-35.09E,189,20.023,33.9822
807,2018/8/25,13:26,41-41.57N,141-35.03E,190,20.016,33.9851
808,2018/8/25,13:27,41-41.32N,141-34.97E,189,19.874,33.9918
809,2018/8/25,13:28,41-41.07N,141-34.92E,190,19.643,33.9959
810,2018/8/25,13:29,41-40.82N,141-34.86E,190,19.482,34.0068
811,2018/8/25,13:30,41-40.57N,141-34.80E,190,19.352,34.0166
812,2018/8/25,13:31,41-40.32N,141-34.72E,193,19.292,34.0189
813,2018/8/25,13:32,41-40.07N,141-34.65E,191,19.349,34.0106
814,2018/8/25,13:33,41-39.82N,141-34.59E,190,19.404,33.9951
815,2018/8/25,13:34,41-39.56N,141-34.52E,191,19.365,33.9865
816,2018/8/25,13:35,41-39.31N,141-34.45E,190,19.278,33.9742
817,2018/8/25,13:36,41-39.05N,141-34.40E,186,19.304,33.9728
818,2018/8/25,13:37,41-38.79N,141-34.38E,183,19.462,33.9682
819,2018/8/25,13:38,41-38.52N,141-34.36E,182,19.427,33.9582
820,2018/8/25,13:39,41-38.26N,141-34.35E,181,19.46,33.9502
821,2018/8/25,13:40,41-37.99N,141-34.35E,180,19.246,33.9435
822,2018/8/25,13:41,41-37.72N,141-34.35E,179,19.268,33.9356
823,2018/8/25,13:42,41-37.44N,141-34.35E,180,19.374,33.9418
824,2018/8/25,13:43,41-37.17N,141-34.35E,179,19.371,33.9207
825,2018/8/25,13:44,41-36.91N,141-34.36E,179,19.343,33.8844
826,2018/8/25,13:45,41-36.64N,141-34.36E,180,19.329,33.8489
827,2018/8/25,13:46,41-36.37N,141-34.36E,180,19.318,33.8042
828,2018/8/25,13:47,41-36.10N,141-34.36E,180,19.277,33.7842
829,2018/8/25,13:48,41-35.82N,141-34.36E,179,19.226,33.776
830,2018/8/25,13:49,41-35.56N,141-34.37E,178,19.213,33.773
831,2018/8/25,13:50,41-35.29N,141-34.38E,178,19.225,33.7789
832,2018/8/25,13:51,41-35.02N,141-34.39E,178,19.259,33.7762
833,2018/8/25,13:52,41-34.74N,141-34.40E,179,19.381,33.773
834,2018/8/25,13:53,41-34.47N,141-34.40E,178,19.506,33.7475
835,2018/8/25,13:54,41-34.21N,141-34.42E,177,19.566,33.7109
836,2018/8/25,13:55,41-33.94N,141-34.43E,177,19.619,33.6741
837,2018/8/25,13:56,41-33.68N,141-34.45E,177,19.661,33.6531
838,2018/8/25,13:57,41-33.41N,141-34.46E,178,19.728,33.6378
839,2018/8/25,13:58,41-33.13N,141-34.46E,178,19.737,33.6247
840,2018/8/25,13:59,41-32.87N,141-34.47E,178,19.836,33.6126
841,2018/8/25,14:00,41-32.61N,141-34.49E,178,19.929,33.6016
842,2018/8/25,14:01,41-32.34N,141-34.50E,179,20.017,33.5675
843,2018/8/25,14:02,41-32.08N,141-34.51E,177,19.991,33.5343
844,2018/8/25,14:03,41-31.81N,141-34.54E,176,20.001,33.5188
845,2018/8/25,14:04,41-31.54N,141-34.55E,177,20.097,33.5199
846,2018/8/25,14:05,41-31.28N,141-34.57E,176,20.139,33.5162
847,2018/8/25,14:06,41-31.02N,141-34.60E,176,20.064,33.509
848,2018/8/25,14:07,41-30.75N,141-34.62E,177,20.043,33.5008
849,2018/8/25,14:08,41-30.49N,141-34.64E,176,20.069,33.476
850,2018/8/25,14:09,41-30.22N,141-34.66E,176,19.98,33.4762
851,2018/8/25,14:10,41-29.95N,141-34.68E,176,19.971,33.4737
852,2018/8/25,14:11,41-29.69N,141-34.70E,176,19.898,33.4487
853,2018/8/25,14:12,41-29.43N,141-34.72E,176,19.946,33.4511
854,2018/8/25,14:13,41-29.17N,141-34.75E,174,19.965,33.4767
855,2018/8/25,14:14,41-28.91N,141-34.79E,172,20.025,33.4897
856,2018/8/25,14:15,41-28.64N,141-34.84E,171,20.096,33.5059
857,2018/8/25,14:16,41-28.38N,141-34.89E,170,20.214,33.5256
858,2018/8/25,14:17,41-28.12N,141-34.97E,168,20.285,33.5636
859,2018/8/25,14:18,41-27.85N,141-35.05E,166,20.317,33.6145
860,2018/8/25,14:19,41-27.60N,141-35.13E,165,20.317,33.6675
861,2018/8/25,14:20,41-27.35N,141-35.22E,165,20.319,33.6917
862,2018/8/25,14:21,41-27.09N,141-35.31E,165,20.342,33.6938
863,2018/8/25,14:22,41-26.83N,141-35.41E,163,20.363,33.6982
864,2018/8/25,14:23,41-26.58N,141-35.51E,163,20.387,33.6952
865,2018/8/25,14:24,41-26.33N,141-35.61E,163,20.38,33.6909
866,2018/8/25,14:25,41-26.07N,141-35.70E,165,20.394,33.6855
867,2018/8/25,14:26,41-25.81N,141-35.80E,164,20.361,33.6761
868,2018/8/25,14:27,41-25.55N,141-35.89E,164,20.315,33.6678
869,2018/8/25,14:28,41-25.29N,141-35.98E,165,20.298,33.6567
870,2018/8/25,14:29,41-25.04N,141-36.07E,164,20.264,33.6526
871,2018/8/25,14:30,41-24.79N,141-36.17E,163,20.297,33.65
872,2018/8/25,14:31,41-24.53N,141-36.26E,164,20.309,33.6457
873,2018/8/25,14:32,41-24.27N,141-36.36E,163,20.279,33.6336
874,2018/8/25,14:33,41-24.02N,141-36.46E,164,20.287,33.6267
875,2018/8/25,14:34,41-23.76N,141-36.55E,164,20.273,33.618
876,2018/8/25,14:35,41-23.50N,141-36.65E,164,20.239,33.6152
877,2018/8/25,14:36,41-23.24N,141-36.75E,163,20.249,33.6074
878,2018/8/25,14:37,41-22.97N,141-36.86E,163,20.241,33.6107
879,2018/8/25,14:38,41-22.70N,141-36.96E,164,20.245,33.6261
880,2018/8/25,14:39,41-22.44N,141-37.06E,164,20.266,33.6363
881,2018/8/25,14:40,41-22.17N,141-37.16E,164,20.272,33.6409
882,2018/8/25,14:41,41-21.90N,141-37.26E,164,20.26,33.639
883,2018/8/25,14:42,41-21.63N,141-37.36E,164,20.242,33.6332
884,2018/8/25,14:43,41-21.36N,141-37.46E,164,20.253,33.6278
885,2018/8/25,14:44,41-21.10N,141-37.56E,163,20.193,33.6222
886,2018/8/25,14:45,41-20.83N,141-37.66E,164,20.166,33.6114
887,2018/8/25,14:46,41-20.56N,141-37.76E,165,20.165,33.5947
888,2018/8/25,14:47,41-20.30N,141-37.86E,163,20.19,33.5778
889,2018/8/25,14:48,41-20.03N,141-37.95E,165,20.174,33.5703
890,2018/8/25,14:49,41-19.76N,141-38.05E,164,20.141,33.5705
891,2018/8/25,14:50,41-19.50N,141-38.14E,165,20.126,33.5721
892,2018/8/25,14:51,41-19.23N,141-38.23E,165,20.126,33.5802
893,2018/8/25,14:52,41-18.97N,141-38.32E,164,20.101,33.5841
894,2018/8/25,14:53,41-18.71N,141-38.42E,164,20.078,33.5858
895,2018/8/25,14:54,41-18.44N,141-38.52E,165,20.07,33.5871
896,2018/8/25,14:55,41-18.16N,141-38.61E,165,20.096,33.5912
897,2018/8/25,14:56,41-17.88N,141-38.70E,166,20.096,33.599
898,2018/8/25,14:57,41-17.61N,141-38.79E,165,20.114,33.6057
899,2018/8/25,14:58,41-17.33N,141-38.88E,165,20.124,33.6111
900,2018/8/25,14:59,41-17.06N,141-38.97E,166,20.162,33.6172
901,2018/8/25,15:00,41-16.77N,141-39.07E,166,20.242,33.6246
902,2018/8/25,15:01,41-16.49N,141-39.16E,165,20.242,33.6363
903,2018/8/25,15:02,41-16.22N,141-39.25E,165,20.275,33.6403
904,2018/8/25,15:03,41-15.94N,141-39.35E,165,20.311,33.6479
905,2018/8/25,15:04,41-15.66N,141-39.44E,165,20.301,33.6531
906,2018/8/25,15:05,41-15.38N,141-39.53E,165,20.303,33.6598
907,2018/8/25,15:06,41-15.10N,141-39.63E,165,20.299,33.6635
908,2018/8/25,15:07,41-14.82N,141-39.72E,166,20.289,33.6683
909,2018/8/25,15:08,41-14.54N,141-39.81E,165,20.303,33.6721
910,2018/8/25,15:09,41-14.26N,141-39.90E,166,20.259,33.6745
911,2018/8/25,15:10,41-13.97N,141-39.99E,166,20.199,33.678
912,2018/8/25,15:11,41-13.69N,141-40.09E,165,20.201,33.6735
913,2018/8/25,15:12,41-13.40N,141-40.18E,165,20.198,33.669
914,2018/8/25,15:13,41-13.12N,141-40.28E,165,20.226,33.663
915,2018/8/25,15:14,41-12.84N,141-40.38E,166,20.191,33.6581
916,2018/8/25,15:15,41-12.55N,141-40.47E,165,20.215,33.6509
917,2018/8/25,15:16,41-12.27N,141-40.57E,166,20.154,33.6474
918,2018/8/25,15:17,41-11.99N,141-40.66E,165,20.17,33.6394
919,2018/8/25,15:18,41-11.71N,141-40.76E,165,20.252,33.6387
920,2018/8/25,15:19,41-11.42N,141-40.85E,165,20.29,33.6474
921,2018/8/25,15:20,41-11.14N,141-40.94E,166,20.305,33.6541
922,2018/8/25,15:21,41-10.87N,141-41.03E,166,20.323,33.661
923,2018/8/25,15:22,41-10.59N,141-41.12E,166,20.343,33.663
924,2018/8/25,15:23,41-10.31N,141-41.21E,167,20.353,33.6657
925,2018/8/25,15:24,41-10.03N,141-41.30E,166,20.34,33.6651
926,2018/8/25,15:25,41-09.75N,141-41.39E,166,20.365,33.6641
927,2018/8/25,15:26,41-09.46N,141-41.48E,167,20.36,33.6594
928,2018/8/25,15:27,41-09.18N,141-41.56E,167,20.352,33.6566
929,2018/8/25,15:28,41-08.90N,141-41.64E,168,20.356,33.6568
930,2018/8/25,15:29,41-08.62N,141-41.73E,167,20.35,33.6606
931,2018/8/25,15:30,41-08.34N,141-41.81E,167,20.361,33.6646
932,2018/8/25,15:31,41-08.05N,141-41.89E,167,20.343,33.6687
933,2018/8/25,15:32,41-07.76N,141-41.97E,167,20.374,33.6691
934,2018/8/25,15:33,41-07.48N,141-42.05E,167,20.355,33.6731
935,2018/8/25,15:34,41-07.19N,141-42.14E,167,20.324,33.6725
936,2018/8/25,15:35,41-06.90N,141-42.22E,167,20.31,33.6718
937,2018/8/25,15:36,41-06.62N,141-42.30E,168,20.294,33.6708
938,2018/8/25,15:37,41-06.33N,141-42.38E,168,20.282,33.67
939,2018/8/25,15:38,41-06.05N,141-42.46E,168,20.273,33.6689
940,2018/8/25,15:39,41-05.77N,141-42.54E,167,20.268,33.6687
941,2018/8/25,15:40,41-05.49N,141-42.61E,169,20.265,33.6675
942,2018/8/25,15:41,41-05.20N,141-42.69E,168,20.239,33.6638
943,2018/8/25,15:42,41-04.92N,141-42.76E,169,20.273,33.6619
944,2018/8/25,15:43,41-04.64N,141-42.84E,168,20.208,33.6604
945,2018/8/25,15:44,41-04.35N,141-42.91E,168,20.205,33.6569
946,2018/8/25,15:45,41-04.07N,141-42.98E,168,20.178,33.6554
947,2018/8/25,15:46,41-03.79N,141-43.06E,169,20.201,33.6488
948,2018/8/25,15:47,41-03.50N,141-43.13E,169,20.175,33.6437
949,2018/8/25,15:48,41-03.22N,141-43.20E,169,20.181,33.6415
950,2018/8/25,15:49,41-02.93N,141-43.28E,168,20.183,33.6379
951,2018/8/25,15:50,41-02.64N,141-43.35E,169,20.194,33.632
952,2018/8/25,15:51,41-02.35N,141-43.42E,168,20.214,33.6313
953,2018/8/25,15:52,41-02.06N,141-43.50E,168,20.192,33.6304
954,2018/8/25,15:53,41-01.78N,141-43.57E,168,20.207,33.6314
955,2018/8/25,15:54,41-01.49N,141-43.65E,169,20.216,33.6302
956,2018/8/25,15:55,41-01.20N,141-43.72E,169,20.186,33.6303
957,2018/8/25,15:56,41-00.91N,141-43.79E,169,20.2,33.6288
958,2018/8/25,15:57,41-00.62N,141-43.86E,169,20.208,33.6293
959,2018/8/25,15:58,41-00.33N,141-43.93E,169,20.263,33.6291
960,2018/8/25,15:59,41-00.05N,141-44.01E,168,20.247,33.6332
961,2018/8/25,16:00,40-59.76N,141-44.08E,168,20.287,33.6401
962,2018/8/25,16:01,40-59.47N,141-44.16E,168,20.256,33.6508
963,2018/8/25,16:02,40-59.18N,141-44.23E,168,20.235,33.6592
964,2018/8/25,16:03,40-58.88N,141-44.31E,169,20.143,33.6323
965,2018/8/25,16:04,40-58.59N,141-44.38E,168,20.06,33.5863
966,2018/8/25,16:05,40-58.31N,141-44.46E,168,19.99,33.5256
967,2018/8/25,16:06,40-58.01N,141-44.53E,168,20.007,33.4739
968,2018/8/25,16:07,40-57.72N,141-44.61E,169,20.093,33.4539
969,2018/8/25,16:08,40-57.43N,141-44.68E,168,20.068,33.4879
970,2018/8/25,16:09,40-57.14N,141-44.76E,168,20,33.5056
971,2018/8/25,16:10,40-56.85N,141-44.84E,168,19.958,33.4747
972,2018/8/25,16:11,40-56.55N,141-44.91E,168,19.854,33.4595
973,2018/8/25,16:12,40-56.25N,141-44.99E,168,19.779,33.413
974,2018/8/25,16:13,40-55.96N,141-45.07E,168,19.732,33.3581
975,2018/8/25,16:14,40-55.67N,141-45.14E,170,19.714,33.3266